JBU3914 KFLL-KJAX

Flight info

Callsign JBU3914
Flight time 0h 53m
Altitude 30000
Route FRSBE2 STYMY ORL HAINY QUBEN2
Aircraft A320/M-SDE3FGHIRWY/LB1

Departure

Time 2026-05-05 00:52
Airport Fort Lauderdale Hollywood International Airport (KFLL)

Arrival

Time 2026-05-05 01:46
Airport Jacksonville International Airport (KJAX)
Time Latitude Longitude Altitude Speed Heading
2026-05-04 23:59 26.07150 -80.14648 16 ft 0 kts 179°
2026-05-05 00:37 26.07152 -80.14648 16 ft 2 kts 179°
2026-05-05 00:37 26.07178 -80.14650 18 ft 4 kts 172°
2026-05-05 00:37 26.07200 -80.14652 17 ft 4 kts 225°
2026-05-05 00:38 26.07202 -80.14664 19 ft 0 kts 281°
2026-05-05 00:45 26.07206 -80.14688 16 ft 7 kts 281°
2026-05-05 00:45 26.07245 -80.14781 16 ft 20 kts 297°
2026-05-05 00:45 26.07335 -80.14856 16 ft 18 kts 353°
2026-05-05 00:45 26.07407 -80.14959 16 ft 18 kts 314°
2026-05-05 00:46 26.07488 -80.15063 16 ft 14 kts 270°
2026-05-05 00:46 26.07490 -80.15183 16 ft 17 kts 270°
2026-05-05 00:46 26.07490 -80.15334 16 ft 22 kts 270°
2026-05-05 00:46 26.07491 -80.15518 16 ft 25 kts 270°
2026-05-05 00:47 26.07492 -80.15722 16 ft 27 kts 270°
2026-05-05 00:47 26.07494 -80.15933 16 ft 28 kts 270°
2026-05-05 00:47 26.07495 -80.16151 16 ft 26 kts 270°
2026-05-05 00:47 26.07497 -80.16363 16 ft 28 kts 270°
2026-05-05 00:48 26.07496 -80.16581 16 ft 25 kts 270°
2026-05-05 00:48 26.07534 -80.16645 16 ft 9 kts
2026-05-05 00:48 26.07599 -80.16643 17 ft 1 kts
2026-05-05 00:51 26.07624 -80.16643 17 ft 9 kts
2026-05-05 00:51 26.07670 -80.16623 18 ft 5 kts 95°
2026-05-05 00:51 26.07691 -80.16594 18 ft 6 kts 59°
2026-05-05 00:51 26.07695 -80.16512 19 ft 27 kts 90°
2026-05-05 00:52 26.07693 -80.16026 20 ft 96 kts 91°
2026-05-05 00:52 26.07686 -80.15079 18 ft 146 kts 90°
2026-05-05 00:52 26.07641 -80.13904 584 ft 151 kts 92°
2026-05-05 00:52 26.07614 -80.12733 1314 ft 151 kts 86°
2026-05-05 00:53 26.07666 -80.11507 1745 ft 169 kts 86°
2026-05-05 00:53 26.07751 -80.10118 2030 ft 192 kts 80°
2026-05-05 00:53 26.08250 -80.08641 2409 ft 217 kts 66°
2026-05-05 00:53 26.09176 -80.07206 2875 ft 244 kts 38°
2026-05-05 00:54 26.10770 -80.06395 3590 ft 260 kts 22°
2026-05-05 00:54 26.12489 -80.05723 4529 ft 265 kts 20°
2026-05-05 00:54 26.14255 -80.05055 5429 ft 272 kts 13°
2026-05-05 00:54 26.16150 -80.04939 6297 ft 277 kts 348°
2026-05-05 00:55 26.18007 -80.05543 7142 ft 280 kts 339°
2026-05-05 00:55 26.19846 -80.06281 8027 ft 283 kts 333°
2026-05-05 00:55 26.21520 -80.07411 8898 ft 282 kts 317°
2026-05-05 00:55 26.22838 -80.09021 9754 ft 282 kts 300°
2026-05-05 00:56 26.23741 -80.11047 10440 ft 290 kts 289°
2026-05-05 00:56 26.24483 -80.13142 10693 ft 312 kts 289°
2026-05-05 00:56 26.25306 -80.15437 11199 ft 324 kts 292°
2026-05-05 00:56 26.26442 -80.17640 11934 ft 330 kts 300°
2026-05-05 00:57 26.27683 -80.19806 12663 ft 332 kts 300°
2026-05-05 00:57 26.28925 -80.21982 12934 ft 333 kts 300°
2026-05-05 00:57 26.30164 -80.24161 13004 ft 333 kts 300°
2026-05-05 00:57 26.31399 -80.26341 13015 ft 332 kts 300°
2026-05-05 00:58 26.32643 -80.28537 13410 ft 337 kts 300°
2026-05-05 00:58 26.33895 -80.30745 14156 ft 337 kts 300°
2026-05-05 00:58 26.35153 -80.32960 14813 ft 339 kts 300°
2026-05-05 00:58 26.36416 -80.35182 15468 ft 340 kts 300°
2026-05-05 00:59 26.37684 -80.37414 16124 ft 341 kts 300°
2026-05-05 00:59 26.38956 -80.39658 16743 ft 343 kts 299°
2026-05-05 00:59 26.40227 -80.41910 16956 ft 343 kts 299°
2026-05-05 00:59 26.41499 -80.44158 17006 ft 342 kts 299°
2026-05-05 01:00 26.42767 -80.46400 17014 ft 342 kts 299°
2026-05-05 01:00 26.44035 -80.48646 17016 ft 342 kts 299°
2026-05-05 01:00 26.45300 -80.50889 17016 ft 342 kts 300°
2026-05-05 01:00 26.46879 -80.52882 17017 ft 349 kts 319°
2026-05-05 01:01 26.49064 -80.54124 17021 ft 360 kts 339°
2026-05-05 01:01 26.51584 -80.54416 17014 ft 372 kts 359°
2026-05-05 01:01 26.54172 -80.54065 17052 ft 377 kts
2026-05-05 01:01 26.56782 -80.53646 17666 ft 380 kts
2026-05-05 01:02 26.59408 -80.53225 18292 ft 383 kts
2026-05-05 01:02 26.62054 -80.52792 18821 ft 386 kts
2026-05-05 01:02 26.64727 -80.52347 19358 ft 389 kts
2026-05-05 01:02 26.67415 -80.51961 19897 ft 388 kts 356°
2026-05-05 01:03 26.69220 -80.52074 20244 ft 382 kts 344°
2026-05-05 01:03 26.71726 -80.52929 20788 ft 375 kts 332°
2026-05-05 01:03 26.74145 -80.54048 21332 ft 377 kts 332°
2026-05-05 01:03 26.76562 -80.55177 21888 ft 378 kts 331°
2026-05-05 01:04 26.79002 -80.56321 22423 ft 381 kts 331°
2026-05-05 01:04 26.83921 -80.58626 23471 ft 386 kts 331°
2026-05-05 01:04 26.86407 -80.59786 23960 ft 388 kts 331°
2026-05-05 01:05 26.88910 -80.60952 24374 ft 391 kts 332°
2026-05-05 01:05 26.91426 -80.62124 24828 ft 392 kts 332°
2026-05-05 01:05 26.93951 -80.63303 25279 ft 394 kts 331°
2026-05-05 01:05 26.96487 -80.64488 25728 ft 396 kts 331°
2026-05-05 01:06 26.99033 -80.65679 26179 ft 397 kts 331°
2026-05-05 01:06 27.01591 -80.66875 26617 ft 399 kts 331°
2026-05-05 01:06 27.04160 -80.68076 27061 ft 401 kts 331°
2026-05-05 01:06 27.06738 -80.69286 27486 ft 402 kts 331°
2026-05-05 01:07 27.09326 -80.70503 27919 ft 404 kts 331°
2026-05-05 01:07 27.11928 -80.71724 28354 ft 406 kts 331°
2026-05-05 01:07 27.14543 -80.72949 28773 ft 408 kts 331°
2026-05-05 01:07 27.17169 -80.74181 29237 ft 410 kts 331°
2026-05-05 01:08 27.19809 -80.75424 29638 ft 413 kts 331°
2026-05-05 01:08 27.22464 -80.76674 30049 ft 415 kts 331°
2026-05-05 01:08 27.25135 -80.77925 30414 ft 417 kts 331°
2026-05-05 01:08 27.27855 -80.79200 30756 ft 419 kts 331°
2026-05-05 01:09 27.30551 -80.80466 30996 ft 420 kts 331°
2026-05-05 01:09 27.33198 -80.81711 31043 ft 410 kts 331°
2026-05-05 01:09 27.35789 -80.82925 31054 ft 399 kts 331°
2026-05-05 01:09 27.38338 -80.84121 31054 ft 395 kts 331°
2026-05-05 01:10 27.43430 -80.86524 31040 ft 393 kts 330°
2026-05-05 01:10 27.48478 -80.88922 31040 ft 393 kts 330°
2026-05-05 01:11 27.53518 -80.91317 31044 ft 392 kts 330°
2026-05-05 01:11 27.58522 -80.93674 31046 ft 388 kts 330°
2026-05-05 01:12 27.63492 -80.96018 31048 ft 387 kts 330°
2026-05-05 01:12 27.68458 -80.98376 31048 ft 387 kts 330°
2026-05-05 01:13 27.73427 -81.00740 31052 ft 387 kts 330°
2026-05-05 01:13 27.78389 -81.03103 31086 ft 387 kts 330°
2026-05-05 01:14 27.83354 -81.05466 31061 ft 387 kts 330°
2026-05-05 01:14 27.88323 -81.07828 31059 ft 387 kts 330°
2026-05-05 01:15 27.93297 -81.10191 31063 ft 387 kts 330°
2026-05-05 01:15 27.98268 -81.12557 31052 ft 388 kts 330°
2026-05-05 01:16 28.03236 -81.14923 31062 ft 388 kts 331°
2026-05-05 01:16 28.08401 -81.16856 31070 ft 391 kts 335°
2026-05-05 01:17 28.13601 -81.18738 31097 ft 392 kts 335°
2026-05-05 01:17 28.18804 -81.20614 31093 ft 392 kts 335°
2026-05-05 01:18 28.24007 -81.22501 31095 ft 393 kts 335°
2026-05-05 01:18 28.29212 -81.24394 31090 ft 393 kts 335°
2026-05-05 01:19 28.34424 -81.26287 31091 ft 393 kts 335°
2026-05-05 01:19 28.39631 -81.28168 31111 ft 393 kts 335°
2026-05-05 01:20 28.44839 -81.30054 31115 ft 392 kts 335°
2026-05-05 01:20 28.50033 -81.31945 31115 ft 391 kts 335°
2026-05-05 01:21 28.55316 -81.33556 31107 ft 401 kts 346°
2026-05-05 01:21 28.60934 -81.33953 31103 ft 405 kts 348°
2026-05-05 01:22 28.66559 -81.34303 31095 ft 404 kts 348°
2026-05-05 01:22 28.72188 -81.34665 31123 ft 404 kts 348°
2026-05-05 01:23 28.77787 -81.35038 30860 ft 400 kts 348°
2026-05-05 01:23 28.80555 -81.35221 30629 ft 398 kts 348°
2026-05-05 01:23 28.83315 -81.35406 30396 ft 397 kts 348°
2026-05-05 01:24 28.86067 -81.35590 30158 ft 396 kts 348°
2026-05-05 01:24 28.88822 -81.35774 29890 ft 396 kts 348°
2026-05-05 01:24 28.91567 -81.35954 29618 ft 394 kts 348°
2026-05-05 01:24 28.94305 -81.36135 29347 ft 393 kts 348°
2026-05-05 01:25 28.97016 -81.36310 29003 ft 387 kts 348°
2026-05-05 01:25 28.99704 -81.36484 28552 ft 385 kts 348°
2026-05-05 01:25 29.02367 -81.36663 28097 ft 382 kts 348°
2026-05-05 01:25 29.05010 -81.36844 27663 ft 379 kts 348°
2026-05-05 01:26 29.07634 -81.37026 27235 ft 377 kts 348°
2026-05-05 01:26 29.10242 -81.37208 26821 ft 374 kts 348°
2026-05-05 01:26 29.12833 -81.37390 26410 ft 372 kts 349°
2026-05-05 01:26 29.15405 -81.37566 25999 ft 369 kts 349°
2026-05-05 01:27 29.17961 -81.37739 25577 ft 367 kts 349°
2026-05-05 01:27 29.20500 -81.37912 25166 ft 364 kts 349°
2026-05-05 01:27 29.23030 -81.38084 24750 ft 362 kts 349°
2026-05-05 01:27 29.25542 -81.38259 24320 ft 361 kts 349°
2026-05-05 01:28 29.28038 -81.38433 23903 ft 360 kts 350°
2026-05-05 01:28 29.30536 -81.38604 23400 ft 359 kts 350°
2026-05-05 01:28 29.33031 -81.38772 22939 ft 356 kts 350°
2026-05-05 01:28 29.35498 -81.38935 22499 ft 353 kts 350°
2026-05-05 01:29 29.37942 -81.39094 22060 ft 351 kts 351°
2026-05-05 01:29 29.40378 -81.39252 21615 ft 349 kts 351°
2026-05-05 01:29 29.42794 -81.39414 21172 ft 347 kts 351°
2026-05-05 01:29 29.45194 -81.39578 20735 ft 345 kts 351°
2026-05-05 01:30 29.47589 -81.39740 20292 ft 344 kts 351°
2026-05-05 01:30 29.49981 -81.39906 19853 ft 343 kts 351°
2026-05-05 01:30 29.52360 -81.40083 19411 ft 341 kts 348°
2026-05-05 01:30 29.54644 -81.40661 18977 ft 333 kts 335°
2026-05-05 01:31 29.56716 -81.41780 18572 ft 327 kts 323°
2026-05-05 01:31 29.58497 -81.43354 18108 ft 321 kts 312°
2026-05-05 01:31 29.60057 -81.45180 17609 ft 320 kts 311°
2026-05-05 01:31 29.61613 -81.47004 17195 ft 319 kts 311°
2026-05-05 01:32 29.63163 -81.48816 16765 ft 317 kts 311°
2026-05-05 01:32 29.64705 -81.50619 16351 ft 316 kts 311°
2026-05-05 01:32 29.66241 -81.52417 15941 ft 315 kts 311°
2026-05-05 01:32 29.67774 -81.54213 15527 ft 315 kts 312°
2026-05-05 01:33 29.69330 -81.56031 15100 ft 315 kts 312°
2026-05-05 01:33 29.70874 -81.57819 14666 ft 315 kts 313°
2026-05-05 01:33 29.72422 -81.59603 14247 ft 316 kts 313°
2026-05-05 01:33 29.73453 -81.60791 13954 ft 317 kts 313°
2026-05-05 01:34 29.75017 -81.62580 13507 ft 317 kts 315°
2026-05-05 01:34 29.76816 -81.64049 13098 ft 318 kts 331°
2026-05-05 01:34 29.78882 -81.64913 12992 ft 317 kts 346°
2026-05-05 01:34 29.81092 -81.65218 13007 ft 321 kts 353°
2026-05-05 01:35 29.83318 -81.65419 13006 ft 321 kts 353°
2026-05-05 01:35 29.85541 -81.65622 13013 ft 321 kts 353°
2026-05-05 01:35 29.87777 -81.65803 13003 ft 321 kts 354°
2026-05-05 01:35 29.90008 -81.65984 13004 ft 321 kts 354°
2026-05-05 01:36 29.92233 -81.66202 12993 ft 320 kts 348°
2026-05-05 01:36 29.94386 -81.66763 12651 ft 316 kts 343°
2026-05-05 01:36 29.96506 -81.67407 12253 ft 314 kts 343°
2026-05-05 01:36 29.98607 -81.68064 11891 ft 312 kts 343°
2026-05-05 01:37 30.00694 -81.68712 11537 ft 309 kts 343°
2026-05-05 01:37 30.02765 -81.69361 11177 ft 307 kts 343°
2026-05-05 01:37 30.04821 -81.70010 10826 ft 305 kts 343°
2026-05-05 01:37 30.06861 -81.70649 10483 ft 303 kts 342°
2026-05-05 01:38 30.08870 -81.71291 10328 ft 294 kts 343°
2026-05-05 01:38 30.10822 -81.71910 10101 ft 288 kts 343°
2026-05-05 01:38 30.12747 -81.72522 9787 ft 286 kts 343°
2026-05-05 01:38 30.14662 -81.73140 9421 ft 286 kts 342°
2026-05-05 01:39 30.16577 -81.73748 9036 ft 285 kts 344°
2026-05-05 01:39 30.18503 -81.74359 8561 ft 289 kts 343°
2026-05-05 01:39 30.20453 -81.74978 8015 ft 292 kts 342°
2026-05-05 01:39 30.22432 -81.75595 7362 ft 289 kts 342°
2026-05-05 01:40 30.24340 -81.76192 6768 ft 286 kts 342°
2026-05-05 01:40 30.26273 -81.76792 6111 ft 282 kts 343°
2026-05-05 01:40 30.28164 -81.77373 5463 ft 280 kts 342°
2026-05-05 01:40 30.30014 -81.77944 4827 ft 278 kts 343°
2026-05-05 01:41 30.31874 -81.78514 4280 ft 273 kts 342°
2026-05-05 01:41 30.33674 -81.79072 4021 ft 262 kts 344°
2026-05-05 01:41 30.35379 -81.79620 3751 ft 247 kts 343°
2026-05-05 01:41 30.37008 -81.80155 3505 ft 242 kts 343°
2026-05-05 01:42 30.38641 -81.80706 3254 ft 240 kts 343°
2026-05-05 01:42 30.40238 -81.81267 3050 ft 240 kts 343°
2026-05-05 01:42 30.41836 -81.81853 2995 ft 241 kts 343°
2026-05-05 01:42 30.43433 -81.82447 2998 ft 242 kts 343°
2026-05-05 01:43 30.45045 -81.82979 3001 ft 240 kts 354°
2026-05-05 01:43 30.46647 -81.82638 2792 ft 234 kts 34°
2026-05-05 01:43 30.47684 -81.81248 2327 ft 231 kts 74°
2026-05-05 01:43 30.47713 -81.79465 1979 ft 217 kts 103°
2026-05-05 01:44 30.47537 -81.77776 1627 ft 205 kts 90°
2026-05-05 01:44 30.47784 -81.76200 1234 ft 194 kts 79°
2026-05-05 01:44 30.48178 -81.74759 951 ft 182 kts 75°
2026-05-05 01:44 30.48572 -81.73442 700 ft 163 kts 74°
2026-05-05 01:45 30.48930 -81.72269 483 ft 146 kts 73°
2026-05-05 01:45 30.49265 -81.71193 267 ft 138 kts 72°
2026-05-05 01:45 30.49570 -81.70166 92 ft 134 kts 73°
2026-05-05 01:45 30.49846 -81.69213 38 ft 99 kts 70°
2026-05-05 01:46 30.49985 -81.68787 36 ft 25 kts 68°
2026-05-05 01:46 30.50047 -81.68594 36 ft 19 kts 78°
2026-05-05 01:46 30.50031 -81.68514 37 ft 11 kts 109°
2026-05-05 01:46 30.49979 -81.68450 36 ft 12 kts 154°
2026-05-05 01:47 30.49902 -81.68439 35 ft 11 kts 189°
2026-05-05 01:47 30.49815 -81.68459 35 ft 14 kts 193°
2026-05-05 01:47 30.49707 -81.68483 35 ft 18 kts 188°
2026-05-05 01:47 30.49576 -81.68511 35 ft 18 kts 192°
2026-05-05 01:48 30.49489 -81.68552 35 ft 13 kts 239°
2026-05-05 01:48 30.49439 -81.68655 35 ft 16 kts 237°
2026-05-05 01:48 30.49330 -81.68702 35 ft 17 kts 166°
2026-05-05 01:48 30.49290 -81.68647 35 ft 8 kts 109°
2026-05-05 01:49 30.49284 -81.68619 35 ft 0 kts 103°